Weather History for KASX - December, 2011

Change the Weather History Date:

Thursday, December 29, 2011

  Actual Average Record
Temperature  
Mean Temperature 26 °F -  
Max Temperature 30 °F 24 °F 45 °F (1999)
Min Temperature 23 °F 6 °F -22 °F (1976)
Degree Days  
Heating Degree Days 38    
Moisture  
Dew Point 22 °F    
Average Humidity 87    
Maximum Humidity 100    
Minimum Humidity 71    
Precipitation  
Precipitation 0.03 in - - ()
Sea Level Pressure  
Sea Level Pressure 29.59 in    
Wind  
Wind Speed 2 mph (West)    
Max Wind Speed 8 mph    
Max Gust Speed -    
Visibility 6 miles    
Events Snow    
Averages and records for this station are not official NWS values.
T = Trace of Precipitation, MM = Missing Value Source: NWS Daily Summary

Daily Weather History Graph

Daily Weather History Graph

Search for Another Location

Airport or City:

Trip Planner

Search our weather history database for the weather conditions in past years. The results will help you decide how hot, cold, wet, or windy it might be!

Date:

Astronomy

Dec. 29, 2011 Rise Set
Actual Time 7:47 AM CST 4:24 PM CST
Civil Twilight 7:12 AM CST 4:59 PM CST
Nautical Twilight 6:34 AM CST 5:37 PM CST
Astronomical Twilight 5:57 AM CST 6:14 PM CST
Moon 10:21 AM CST (12/29) 10:22 PM CST (12/29)
Length of Visible Light 9h 46m
Length of Day
8h 36m
Waxing Crescent, 27% of the Moon is Illuminated
Dec 29
Waxing Crescent
Jan 1
First Quarter
Jan 9
Full
Jan 16
Last Quarter
Jan 23
New

Hourly Weather History & Observations

Time (CST) Temp. Windchill Dew Point Humidity Pressure Visibility Wind Dir Wind Speed Gust Speed Precip Events Conditions
12:53 AM 24.1 °F 18.2 °F 16.0 °F 71% 29.62 in 10.0 mi South 4.6 mph - N/A   Overcast
1:53 AM 24.1 °F - 17.1 °F 75% 29.60 in 10.0 mi Calm Calm - N/A   Overcast
2:53 AM 24.1 °F - 19.0 °F 81% 29.58 in 3.0 mi Calm Calm - 0.00 in Snow Light Snow
3:20 AM 24.8 °F - 19.4 °F 80% 29.53 in 1.8 mi Calm Calm - 0.00 in Snow Light Snow
3:32 AM 24.8 °F - 21.2 °F 86% 29.53 in 1.5 mi Calm Calm - 0.00 in Snow Light Snow
3:53 AM 24.1 °F - 21.9 °F 91% 29.56 in 1.8 mi Calm Calm - 0.00 in Snow Light Snow
4:28 AM 23.0 °F - 21.2 °F 93% 29.51 in 3.0 mi Calm Calm - 0.02 in Snow Light Snow
4:45 AM 23.0 °F 18.4 °F 21.2 °F 93% 29.50 in 1.8 mi ENE 3.5 mph - 0.02 in Snow Light Snow
4:53 AM 23.0 °F - 21.9 °F 96% 29.55 in 1.5 mi Calm Calm - 0.02 in Snow Light Snow
5:53 AM 24.1 °F - 21.9 °F 91% 29.55 in 2.0 mi Calm Calm - 0.01 in Snow Light Snow
7:45 AM 24.8 °F - 23.0 °F 93% 29.54 in 3.0 mi Calm Calm - 0.00 in Snow Light Snow
7:53 AM 24.1 °F - 23.0 °F 96% 29.58 in 1.8 mi Calm Calm - 0.00 in Snow Light Snow
8:07 AM 24.8 °F - 21.2 °F 86% 29.54 in 1.5 mi Calm Calm - 0.00 in Snow Light Snow
8:20 AM 24.8 °F - 23.0 °F 93% 29.55 in 2.5 mi Calm Calm - 0.00 in Snow Light Snow
8:35 AM 24.8 °F - 23.0 °F 93% 29.55 in 1.2 mi Calm Calm - 0.01 in Snow Light Snow
8:45 AM 24.8 °F - 23.0 °F 93% 29.55 in 0.8 mi Calm Calm - 0.01 in Snow Light Snow
9:07 AM 24.8 °F - 23.0 °F 93% 29.55 in 3.0 mi Calm Calm - 0.00 in Snow Light Snow
9:19 AM 24.8 °F 20.5 °F 24.8 °F 100% 29.56 in 7.0 mi West 3.5 mph - 0.00 in   Overcast
9:53 AM 26.1 °F 21.9 °F 24.1 °F 92% 29.61 in 10.0 mi WSW 3.5 mph - 0.00 in   Overcast
10:10 AM 26.6 °F 22.6 °F 24.8 °F 93% 29.57 in 10.0 mi Variable 3.5 mph - N/A   Overcast
10:53 AM 28.0 °F 22.8 °F 25.0 °F 88% 29.60 in 10.0 mi West 4.6 mph - N/A   Overcast
11:53 AM 30.0 °F 26.5 °F 26.1 °F 85% 29.60 in 10.0 mi NW 3.5 mph - N/A   Overcast
12:53 PM 30.0 °F 22.4 °F 25.0 °F 82% 29.61 in 10.0 mi WNW 8.1 mph - N/A   Overcast
1:53 PM 28.9 °F 21.1 °F 25.0 °F 85% 29.62 in 10.0 mi WNW 8.1 mph - N/A   Overcast
2:53 PM 28.9 °F 23.9 °F 23.0 °F 78% 29.64 in 10.0 mi NNW 4.6 mph - N/A   Overcast
4:53 PM 27.0 °F 20.5 °F 21.9 °F 81% 29.70 in 10.0 mi WNW 5.8 mph - N/A   Overcast
6:53 PM 26.1 °F 20.5 °F 19.9 °F 78% 29.72 in 10.0 mi West 4.6 mph - N/A   Overcast
7:53 PM 25.0 °F - 19.9 °F 81% 29.71 in 10.0 mi Calm Calm - N/A   Overcast
8:53 PM 25.0 °F 20.7 °F 19.9 °F 81% 29.73 in 10.0 mi WSW 3.5 mph - N/A   Overcast
11:53 PM 24.1 °F 19.7 °F 19.0 °F 81% 29.74 in 10.0 mi SSW 3.5 mph - N/A   Overcast